Window Rock, AZ

9:03 PM MDT on March 27, 2017 (GMT -0600)
Window Rock

Weather History for KRQE - November, 2013

Change the Weather History Date:

Wednesday, November 20, 2013

  Actual Average Record
Temperature  
Mean Temperature 36 °F -  
Max Temperature 45 °F 49 °F 68 °F (1949)
Min Temperature 27 °F 20 °F 5 °F (1964)
Degree Days  
Heating Degree Days 29    
Moisture  
Dew Point 34 °F    
Average Humidity 89    
Maximum Humidity 100    
Minimum Humidity 68    
Precipitation  
Precipitation 0.13 in - - ()
Sea Level Pressure  
Sea Level Pressure 29.90 in    
Wind  
Wind Speed 3 mph (SW)    
Max Wind Speed 13 mph    
Max Gust Speed -    
Visibility 10 miles    
Events Rain    
Averages and records for this station are not official NWS values.
T = Trace of Precipitation, MM = Missing Value Source: NWS Daily Summary

Daily Weather History Graph

Daily Weather History Graph

Search for Another Location

Airport or City:

Trip Planner

Search our weather history database for the weather conditions in past years. The results will help you decide how hot, cold, wet, or windy it might be!

Date:

Astronomy

Nov. 20, 2013 Rise Set
Actual Time 6:57 AM MST 5:06 PM MST
Civil Twilight 6:29 AM MST 5:33 PM MST
Nautical Twilight 5:58 AM MST 6:04 PM MST
Astronomical Twilight 5:28 AM MST 6:35 PM MST
Moon 7:52 PM MST (11/20) 9:24 AM MST (11/20)
Length of Visible Light 11h 03m
Length of Day
10h 09m
Waning Gibbous, 91% of the Moon is Illuminated
Nov 20
Waning Gibbous
Nov 25
Last Quarter
Dec 2
New
Dec 9
First Quarter
Dec 17
Full

Hourly Weather History & Observations

Time (MST) Temp. Windchill Dew Point Humidity Pressure Visibility Wind Dir Wind Speed Gust Speed Precip Events Conditions
12:53 AM 33.1 °F - 27.0 °F 78% 29.83 in 10.0 mi Calm Calm - N/A   Clear
1:53 AM 37.0 °F 33.3 °F 30.0 °F 76% 29.81 in 10.0 mi South 4.6 mph - N/A   Clear
2:53 AM 35.1 °F - 30.0 °F 82% 29.83 in 10.0 mi Calm Calm - N/A   Clear
3:53 AM 34.0 °F - 30.0 °F 85% 29.83 in 10.0 mi Calm Calm - N/A   Clear
4:53 AM 27.0 °F - 25.0 °F 92% 29.88 in 10.0 mi Calm Calm - N/A   Clear
5:53 AM 28.0 °F - 25.0 °F 88% 29.89 in 10.0 mi Calm Calm - N/A   Clear
6:53 AM 30.0 °F 26.5 °F 26.1 °F 85% 29.91 in 10.0 mi NNE 3.5 mph - N/A   Mostly Cloudy
7:53 AM 30.0 °F - 27.0 °F 88% 29.92 in 10.0 mi Calm Calm - N/A   Mostly Cloudy
9:54 AM - - - N/A% 30.00 in - North - - N/A   Unknown
10:53 AM - - - N/A% 29.98 in - North - - N/A   Unknown
11:53 AM 45.0 °F 38.9 °F 35.1 °F 68% 29.85 in - SSW 12.7 mph - N/A   Overcast
12:53 PM 45.0 °F 39.3 °F 35.1 °F 68% 29.80 in - SSW 11.5 mph - 0.00 in   Overcast
1:53 PM 43.0 °F 38.2 °F 37.9 °F 82% 29.81 in - SSW 8.1 mph - 0.00 in Rain Light Rain
2:53 PM 39.9 °F 32.9 °F 37.0 °F 89% 29.83 in - WSW 11.5 mph - 0.03 in Rain Light Rain
3:20 PM 39.0 °F 34.0 °F 37.0 °F 93% 29.93 in - WSW 6.9 mph - 0.02 in Rain Light Rain
3:53 PM 37.9 °F 32.1 °F 35.1 °F 89% 29.86 in - West 8.1 mph - 0.06 in Rain Light Rain
4:11 PM 37.0 °F 31.0 °F 35.1 °F 93% 29.95 in - SW 8.1 mph - 0.01 in Rain Light Rain
4:53 PM 37.0 °F - 34.0 °F 89% 29.90 in - Calm Calm - 0.01 in   Overcast
5:05 PM 37.0 °F - 35.1 °F 93% 29.95 in - Calm Calm - N/A   Overcast
5:53 PM 37.0 °F 33.3 °F 35.1 °F 93% 29.91 in - South 4.6 mph - 0.00 in Rain Light Rain
6:53 PM 37.0 °F 33.3 °F 36.0 °F 96% 29.91 in - South 4.6 mph - 0.00 in Rain Light Rain
7:53 PM 37.0 °F - 36.0 °F 96% 29.91 in - Calm Calm - 0.01 in   Overcast
8:53 PM 37.9 °F - 37.0 °F 97% 29.90 in - Calm Calm - 0.00 in   Overcast
9:09 PM 37.9 °F - 37.0 °F 97% 29.98 in - Calm Calm - 0.00 in Rain Light Rain
9:53 PM 37.9 °F - 37.0 °F 97% 29.98 in - Calm Calm - 0.00 in Rain Light Rain
10:25 PM 37.9 °F - 37.0 °F 97% 29.98 in - Calm Calm - 0.01 in   Overcast
10:53 PM 37.9 °F 35.5 °F 37.0 °F 97% 29.97 in - SSW 3.5 mph - 0.01 in Rain Light Rain
11:05 PM 37.9 °F 35.5 °F 37.0 °F 97% 29.98 in - WSW 3.5 mph - 0.01 in Rain Light Rain
11:21 PM 37.9 °F 34.4 °F 37.0 °F 97% 29.98 in - West 4.6 mph - 0.01 in   Overcast
11:53 PM 37.9 °F - 37.9 °F 100% 29.84 in - Calm Calm - 0.01 in   Overcast